RYR6EW LMML-LIPE

Flight info

Callsign RYR6EW
Flight time N/A
Altitude 38000
Route GZO M622 SOPIR DCT ADEXI DCT GIANO DCT RITEB DCT NIKMA DCT GAVRA M726 PELEG
Aircraft B738/M-SDE3FGILRWY/SB1

Departure

Time N/A
Airport Malta International Airport (LMML)

Arrival

Time 2026-05-05 09:14
Airport Bologna Guglielmo Marconi Airport (LIPE)
Time Latitude Longitude Altitude Speed Heading
2026-05-05 08:41 42.49965 12.17965 38055 ft 436 kts 351°
2026-05-05 08:42 42.56037 12.17489 38059 ft 436 kts 351°
2026-05-05 08:42 42.62089 12.17014 38064 ft 435 kts 351°
2026-05-05 08:43 42.68126 12.16540 38068 ft 435 kts 351°
2026-05-05 08:43 42.74261 12.16478 38066 ft 440 kts 357°
2026-05-05 08:43 42.77320 12.16651 37768 ft 438 kts 357°
2026-05-05 08:44 42.80353 12.16810 37265 ft 435 kts 357°
2026-05-05 08:44 42.83378 12.16959 36676 ft 435 kts 356°
2026-05-05 08:44 42.86391 12.17100 36227 ft 432 kts 356°
2026-05-05 08:44 42.89390 12.17238 35781 ft 429 kts 356°
2026-05-05 08:45 42.92362 12.17372 35342 ft 426 kts 356°
2026-05-05 08:45 42.95312 12.17503 34908 ft 422 kts 355°
2026-05-05 08:45 42.98236 12.17632 34481 ft 419 kts 355°
2026-05-05 08:45 43.01143 12.17760 34060 ft 416 kts 355°
2026-05-05 08:46 43.04016 12.17776 33647 ft 409 kts 350°
2026-05-05 08:46 43.06805 12.17319 33240 ft 399 kts 342°
2026-05-05 08:46 43.09475 12.16407 32821 ft 391 kts 336°
2026-05-05 08:46 43.12045 12.15262 32420 ft 387 kts 334°
2026-05-05 08:47 43.14568 12.14033 32023 ft 384 kts 333°
2026-05-05 08:47 43.17103 12.12783 31628 ft 381 kts 333°
2026-05-05 08:47 43.19596 12.11550 31242 ft 379 kts 333°
2026-05-05 08:47 43.22062 12.10327 30862 ft 376 kts 333°
2026-05-05 08:48 43.24548 12.09092 30481 ft 374 kts 333°
2026-05-05 08:48 43.26987 12.07879 30109 ft 372 kts 333°
2026-05-05 08:48 43.29411 12.06672 29743 ft 370 kts 333°
2026-05-05 08:48 43.31852 12.05455 29363 ft 368 kts 333°
2026-05-05 08:49 43.34258 12.04254 28986 ft 367 kts 333°
2026-05-05 08:49 43.36646 12.03061 28611 ft 365 kts 333°
2026-05-05 08:49 43.39031 12.01871 28237 ft 365 kts 333°
2026-05-05 08:49 43.41420 12.00685 27861 ft 364 kts 333°
2026-05-05 08:50 43.43795 11.99503 27486 ft 363 kts 333°
2026-05-05 08:50 43.46122 11.98343 27116 ft 363 kts 333°
2026-05-05 08:50 43.48434 11.97194 26746 ft 363 kts 334°
2026-05-05 08:50 43.50809 11.96012 26373 ft 362 kts 334°
2026-05-05 08:51 43.52370 11.95232 26126 ft 362 kts 334°
2026-05-05 08:51 43.55481 11.93673 25635 ft 362 kts 334°
2026-05-05 08:51 43.57849 11.92483 25260 ft 362 kts 334°
2026-05-05 08:51 43.59428 11.91688 25010 ft 362 kts 334°
2026-05-05 08:52 43.61824 11.90480 24631 ft 362 kts 334°
2026-05-05 08:52 43.64184 11.89290 24257 ft 362 kts 335°
2026-05-05 08:52 43.66553 11.88093 23881 ft 362 kts 335°
2026-05-05 08:52 43.68909 11.86901 23507 ft 362 kts 335°
2026-05-05 08:53 43.71275 11.85705 23132 ft 361 kts 335°
2026-05-05 08:53 43.73635 11.84510 22760 ft 361 kts 335°
2026-05-05 08:53 43.75997 11.83318 22389 ft 361 kts 336°
2026-05-05 08:53 43.78414 11.82347 22018 ft 364 kts 343°
2026-05-05 08:54 43.80913 11.81746 21649 ft 365 kts 348°
2026-05-05 08:54 43.83394 11.81297 21284 ft 364 kts 348°
2026-05-05 08:54 43.85936 11.80813 20914 ft 363 kts 348°
2026-05-05 08:54 43.88438 11.80329 20551 ft 363 kts 348°
2026-05-05 08:55 43.90933 11.79837 20187 ft 361 kts 348°
2026-05-05 08:55 43.93420 11.79348 19825 ft 360 kts 348°
2026-05-05 08:55 43.95900 11.78860 19465 ft 359 kts 348°
2026-05-05 08:55 43.98368 11.78372 19106 ft 358 kts 348°
2026-05-05 08:56 44.00753 11.77898 18761 ft 357 kts 348°
2026-05-05 08:56 44.03257 11.77401 18398 ft 356 kts 349°
2026-05-05 08:56 44.05677 11.76920 18047 ft 355 kts 349°
2026-05-05 08:56 44.08147 11.76428 17690 ft 353 kts 349°
2026-05-05 08:57 44.10570 11.75945 17339 ft 352 kts 349°
2026-05-05 08:57 44.12999 11.75460 16986 ft 351 kts 349°
2026-05-05 08:57 44.15407 11.74979 16632 ft 350 kts 349°
2026-05-05 08:57 44.17812 11.74498 16278 ft 349 kts 349°
2026-05-05 08:58 44.20217 11.73991 15920 ft 347 kts 346°
2026-05-05 08:58 44.22467 11.72877 15563 ft 342 kts 330°
2026-05-05 08:58 44.24428 11.71033 15191 ft 339 kts 319°
2026-05-05 08:58 44.26155 11.68828 14828 ft 336 kts 313°
2026-05-05 08:59 44.27772 11.66485 14468 ft 335 kts 310°
2026-05-05 08:59 44.29363 11.64151 14111 ft 335 kts 311°
2026-05-05 08:59 44.30876 11.61591 13742 ft 333 kts 303°
2026-05-05 08:59 44.32057 11.58871 13386 ft 331 kts 296°
2026-05-05 09:00 44.33089 11.56007 13026 ft 330 kts 293°
2026-05-05 09:00 44.34053 11.53102 12662 ft 329 kts 292°
2026-05-05 09:00 44.35012 11.50207 12310 ft 329 kts 293°
2026-05-05 09:00 44.35976 11.47307 11955 ft 328 kts 293°
2026-05-05 09:01 44.36937 11.44422 11601 ft 328 kts 293°
2026-05-05 09:01 44.37902 11.41532 11249 ft 327 kts 293°
2026-05-05 09:01 44.38868 11.38643 10896 ft 327 kts 293°
2026-05-05 09:01 44.39825 11.35780 10544 ft 326 kts 293°
2026-05-05 09:02 44.40799 11.32916 10237 ft 325 kts 294°
2026-05-05 09:02 44.41801 11.30112 10047 ft 318 kts 294°
2026-05-05 09:02 44.42777 11.27385 9995 ft 307 kts 294°
2026-05-05 09:02 44.43709 11.24771 9988 ft 294 kts 294°
2026-05-05 09:03 44.44617 11.22267 9984 ft 283 kts 295°
2026-05-05 09:03 44.45500 11.19875 9976 ft 271 kts 294°
2026-05-05 09:03 44.46343 11.17587 9977 ft 258 kts 294°
2026-05-05 09:03 44.47148 11.15394 9968 ft 248 kts 294°
2026-05-05 09:04 44.47921 11.13289 9963 ft 239 kts 294°
2026-05-05 09:04 44.48669 11.11247 9774 ft 232 kts 294°
2026-05-05 09:04 44.49394 11.09241 9261 ft 232 kts 294°
2026-05-05 09:04 44.50124 11.07209 8619 ft 236 kts 293°
2026-05-05 09:05 44.50863 11.05146 7972 ft 238 kts 294°
2026-05-05 09:05 44.51611 11.03056 7393 ft 237 kts 294°
2026-05-05 09:05 44.52347 11.00996 6910 ft 230 kts 294°
2026-05-05 09:05 44.53049 10.99030 6436 ft 226 kts 294°
2026-05-05 09:06 44.53750 10.97066 5953 ft 222 kts 294°
2026-05-05 09:06 44.54442 10.95127 5479 ft 220 kts 294°
2026-05-05 09:06 44.55120 10.93223 5003 ft 218 kts 294°
2026-05-05 09:06 44.56056 10.91579 4506 ft 219 kts 322°
2026-05-05 09:07 44.57462 10.90830 4028 ft 218 kts 353°
2026-05-05 09:07 44.58949 10.91069 3572 ft 215 kts 14°
2026-05-05 09:07 44.60341 10.91799 3097 ft 212 kts 25°
2026-05-05 09:07 44.61645 10.92742 2654 ft 209 kts 28°
2026-05-05 09:08 44.62882 10.93664 2512 ft 196 kts 29°
2026-05-05 09:08 44.63828 10.94911 2403 ft 186 kts 67°
2026-05-05 09:08 44.63998 10.96676 2443 ft 182 kts 92°
2026-05-05 09:08 44.63793 10.98425 2497 ft 180 kts 104°
2026-05-05 09:09 44.63415 11.00084 2520 ft 177 kts 110°
2026-05-05 09:09 44.62972 11.01681 2544 ft 174 kts 111°
2026-05-05 09:09 44.62544 11.03272 2532 ft 174 kts 112°
2026-05-05 09:09 44.62082 11.04829 2516 ft 174 kts 114°
2026-05-05 09:10 44.61575 11.06366 2506 ft 174 kts 116°
2026-05-05 09:10 44.61053 11.07878 2499 ft 174 kts 116°
2026-05-05 09:10 44.60512 11.09413 2494 ft 174 kts 117°
2026-05-05 09:10 44.59973 11.10930 2490 ft 174 kts 117°
2026-05-05 09:11 44.59423 11.12469 2440 ft 175 kts 117°
2026-05-05 09:11 44.58887 11.13969 2246 ft 174 kts 117°
2026-05-05 09:11 44.58342 11.15490 2019 ft 173 kts 117°
2026-05-05 09:11 44.57813 11.16966 1786 ft 165 kts 117°
2026-05-05 09:12 44.57313 11.18360 1578 ft 155 kts 117°
2026-05-05 09:12 44.56846 11.19664 1386 ft 146 kts 116°
2026-05-05 09:12 44.56382 11.20955 1172 ft 148 kts 116°
2026-05-05 09:12 44.55920 11.22245 975 ft 150 kts 116°
2026-05-05 09:13 44.55452 11.23590 751 ft 153 kts 115°
2026-05-05 09:13 44.54971 11.24926 561 ft 153 kts 116°
2026-05-05 09:13 44.54482 11.26259 341 ft 154 kts 116°
2026-05-05 09:13 44.54011 11.27567 141 ft 148 kts 116°
2026-05-05 09:14 44.53594 11.28733 131 ft 107 kts 120°
2026-05-05 09:14 44.53371 11.29362 131 ft 59 kts 117°
2026-05-05 09:14 44.53210 11.29632 131 ft 33 kts 137°
2026-05-05 09:14 44.53117 11.29705 131 ft 3 kts 146°
2026-05-05 09:15 44.53110 11.29712 131 ft 0 kts 146°
2026-05-05 09:16 44.53101 11.29721 131 ft 5 kts 145°
2026-05-05 09:16 44.53064 11.29780 131 ft 1 kts 131°
2026-05-05 09:16 44.53027 11.29780 131 ft 12 kts 217°
2026-05-05 09:16 44.53034 11.29727 131 ft 9 kts 301°
2026-05-05 09:17 44.53083 11.29603 131 ft 20 kts 295°
2026-05-05 09:17 44.53147 11.29423 131 ft 19 kts 294°
2026-05-05 09:17 44.53136 11.29332 131 ft 11 kts 279°
2026-05-05 09:17 44.53135 11.29259 131 ft 5 kts 228°
2026-05-05 09:18 44.53110 11.29236 131 ft 6 kts 208°
2026-05-05 09:18 44.53097 11.29226 131 ft 0 kts 208°